TimeAKDT,TemperatureF,Dew PointF,Humidity,Sea Level PressureIn,VisibilityMPH,Wind Direction,Wind SpeedMPH,Gust SpeedMPH,PrecipitationIn,Events,Conditions,WindDirDegrees,DateUTC
12:53 AM,30.9,28.0,89,30.12,10.0,Calm,Calm,-,N/A,,Clear,0,2013-04-01 08:53:00
1:53 AM,30.9,28.0,89,30.11,10.0,Calm,Calm,-,N/A,,Clear,0,2013-04-01 09:53:00
2:34 AM,30.2,26.6,86,30.10,10.0,Calm,Calm,-,N/A,,Mostly Cloudy,0,2013-04-01 10:34:00
2:53 AM,30.0,27.0,88,30.11,10.0,Calm,Calm,-,N/A,,Overcast,0,2013-04-01 10:53:00
3:12 AM,30.2,26.6,86,30.09,10.0,Calm,Calm,-,N/A,,Overcast,0,2013-04-01 11:12:00
3:53 AM,30.0,26.1,85,30.09,10.0,Calm,Calm,-,N/A,,Partly Cloudy,0,2013-04-01 11:53:00
4:53 AM,28.9,26.1,89,30.08,10.0,NNE,3.5,-,N/A,,Clear,30,2013-04-01 12:53:00
5:53 AM,28.0,24.1,85,30.07,10.0,NE,3.5,-,N/A,,Clear,40,2013-04-01 13:53:00
6:53 AM,27.0,24.1,89,30.06,10.0,Calm,Calm,-,N/A,,Partly Cloudy,0,2013-04-01 14:53:00
7:53 AM,27.0,24.1,89,30.05,10.0,Calm,Calm,-,N/A,,Partly Cloudy,0,2013-04-01 15:53:00
8:53 AM,28.9,25.0,85,30.05,10.0,Calm,Calm,-,N/A,,Partly Cloudy,0,2013-04-01 16:53:00
9:53 AM,36.0,30.9,82,30.04,10.0,Calm,Calm,-,N/A,,Partly Cloudy,0,2013-04-01 17:53:00
10:53 AM,36.0,30.9,82,30.03,10.0,SE,3.5,-,N/A,,Partly Cloudy,140,2013-04-01 18:53:00
11:53 AM,37.0,33.1,86,30.02,10.0,SE,3.5,-,N/A,,Scattered Clouds,140,2013-04-01 19:53:00
12:06 PM,37.4,33.8,87,30.01,10.0,Variable,3.5,-,N/A,,Scattered Clouds,0,2013-04-01 20:06:00
12:53 PM,37.9,32.0,79,30.01,10.0,SW,5.8,-,N/A,,Scattered Clouds,220,2013-04-01 20:53:00
1:53 PM,37.9,25.0,60,30.00,10.0,West,9.2,-,N/A,,Mostly Cloudy,260,2013-04-01 21:53:00
2:53 PM,39.0,28.0,65,29.99,10.0,WSW,13.8,-,N/A,,Mostly Cloudy,240,2013-04-01 22:53:00
3:53 PM,39.9,28.9,65,29.99,10.0,WSW,9.2,-,N/A,,Mostly Cloudy,240,2013-04-01 23:53:00
4:53 PM,41.0,30.0,65,29.98,10.0,West,10.4,-,N/A,,Overcast,260,2013-04-02 00:53:00
5:53 PM,39.9,28.9,65,29.99,10.0,WSW,9.2,-,N/A,,Clear,250,2013-04-02 01:53:00
6:53 PM,37.9,30.9,76,29.98,10.0,WSW,11.5,-,N/A,,Clear,250,2013-04-02 02:53:00
7:53 PM,37.0,28.9,73,29.99,10.0,WSW,8.1,-,N/A,,Clear,250,2013-04-02 03:53:00
8:53 PM,36.0,30.0,79,29.99,10.0,West,9.2,-,N/A,,Partly Cloudy,260,2013-04-02 04:53:00
9:53 PM,37.0,24.1,59,30.01,10.0,Calm,Calm,-,N/A,,Overcast,0,2013-04-02 05:53:00
10:53 PM,35.1,26.1,70,30.02,10.0,Calm,Calm,-,N/A,,Mostly Cloudy,0,2013-04-02 06:53:00
11:53 PM,30.0,24.1,79,30.03,10.0,North,-9999.0,-,N/A,,Clear,0,2013-04-02 07:53:00